Chicago Midway International Airport Chicago US
ICAO: KMDW
IATA: MDW
Category: Large
Scheduled Services: Yes

Elevation: 620 ft
TransAlt. 18000 ft.

Airport Communications:
APP/DEP:118.4
ASOS:132.75
ATIS:132.75
CLNC DEL:121.85
GND:121.65
TWR:118.7
UNICOM:122.95

KMDW Zoom In..

If Map Doesn't Load, Click Here

Runways:

(A) RW 04L length 5507 ft width 150 ft
---- / hdg 44

(B) RW 04R length 6445 ft width 150 ft
ILS 111.50 / hdg 44

(C) RW 13C length 6522 ft width 150 ft
ILS 109.90 / hdg 135

(D) RW 13L length 5141 ft width 150 ft
---- / hdg 135

(E) RW 13R length 3859 ft width 60 ft
---- / hdg 135

(F) RW 22L length 6445 ft width 150 ft
---- / hdg 224

(G) RW 22R length 5507 ft width 150 ft
---- / hdg 224

(H) RW 31C length 6522 ft width 150 ft
ILS 109.90 / hdg 315

(I) RW 31L length 3859 ft width 60 ft
---- / hdg 315

(J) RW 31R length 5141 ft width 150 ft
---- / hdg 315

Location; KMDW
Day. 21 / Time. 14.53 Zulu
* Altimeter: 29.86
* Temperature: 24° c. 75.2°f.
* Wind from: 250° Speed 15 kn with Gusts up to 27 kn.
Dewpoint: 17° c.
Visibility: 10 Statute Miles.
Clouds: Broken 4400 ft.
Clouds: Broken 15000 ft.
Clouds: Broken 2000 ft.
Clouds: Broken 25000 ft.

KMDW 211453Z 25015G27KT 10SM BKN044 BKN150 BKN200 BKN250 24/17 A2986 RMK AO2 PK WND 25031/1412 SLP100 T02440172 51029


Wind From 250°
Speed 15 kn.

 
 
jpsmedia.com for Web Design worldairports.se 2018   terms of use